[[{"header":{"parameterUnit":"m.s-1","parameterCategory":1,"la1":30.2991,"la2":30.254,"lo1":-89.0895,"lo2":-89.0444,"dy":0.0017,"dx":0.0017,"nx":28,"ny":28,"refTime":"2023-08-06T03:00:00:Z","depth":0,"parameterNumber":2,"parameterNumberName":"U-component_of_WINDS"},"data":[0,0,0,0,0,0,0,0,0,0,0,0,0,0,0,0,0,0,0,0,0,0,0,0,0,0,0,0,0,0,0,0,0,0,0,0,0,0,0,0,0,0,0,0,0,0,0,0,0,0,0,0,0,0,0,0,0,0,1.1652,1.1654,0,1.1854,1.1856,1.1859,1.1916,1.1915,1.1914,1.1913,1.212,1.2126,1.2133,0,0,0,0,0,0,0,0,0,0,0,0,0,1.1316,1.1322,1.1652,1.1655,1.1657,1.1854,1.1857,1.1859,1.1917,1.1915,1.1914,1.1913,1.2118,1.2126,1.2134,0,0,0,0,0,0,0,0,0,0,0,0,0,1.1484,1.1324,1.1652,1.1709,1.1717,1.1853,1.1857,1.186,1.1917,1.1915,1.1914,1.1912,1.2115,1.2125,1.2135,1.2228,0,0,1.2165,1.2169,0,0,0,0,0,0,0,0,1.1475,1.1496,1.1698,1.1706,1.1714,1.1858,1.1814,1.1983,1.1917,1.1841,1.1913,1.1911,1.2034,1.2051,1.2092,1.2238,1.2247,1.2165,1.2171,1.2176,1.2178,0,0,0,0,0,0,0,1.1463,1.1488,1.1732,1.1701,1.1711,1.1725,1.1747,1.1846,1.1944,1.1847,1.1852,1.1875,1.2038,1.2083,1.2098,1.225,1.2165,1.2174,1.218,1.2184,1.2483,1.2485,0,0,0,0,0,0,1.1441,1.1478,1.1726,1.1738,1.1588,1.1733,1.1757,1.1814,1.1944,1.1962,1.1876,1.1877,1.2067,1.2086,1.2105,1.2224,1.2175,1.2185,1.219,1.2481,1.2483,1.2486,0,0,0,0,0,0,1.1434,1.1463,1.1717,1.1609,1.1643,1.174,1.1803,1.1819,1.1863,1.1965,1.1983,1.1904,1.2066,1.2091,1.2197,1.2232,1.2189,1.2198,1.2478,1.2482,1.2484,1.2461,0,0,0,0,0,0,1.1424,1.146,1.1496,1.161,1.1648,1.1806,1.1805,1.1824,1.188,1.1883,1.1996,1.2013,1.2067,1.2182,1.2207,1.2245,1.2206,1.2476,1.248,1.2483,1.246,1.2463,1.2467,0,0,0,0,0,1.1412,1.1482,1.1498,1.1527,1.1696,1.1808,1.183,1.1891,1.1882,1.192,1.1986,1.2009,1.2224,1.2193,1.2221,1.2262,1.2474,1.2479,1.2483,1.2458,1.2463,1.2467,0,0,0,0,0,0,1.137,1.1498,1.1517,1.1626,1.1706,1.1818,1.1867,1.1894,1.1978,1.1977,1.2048,1.2073,1.2174,1.2229,1.2192,1.236,1.2349,1.236,1.2321,1.2326,1.2329,1.2315,1.2214,0,0,0,0,0,1.1373,1.1453,1.1561,1.1646,1.1685,1.1769,1.182,1.186,1.1945,1.1979,1.2053,1.2135,1.2221,1.2276,1.2361,1.2467,1.2493,1.2509,1.2513,1.2515,1.2524,1.2585,1.2594,1.2501,1.2501,1.2501,0,0,1.1381,1.146,1.1507,1.164,1.1706,1.1788,1.1797,1.1883,1.1944,1.1992,1.2097,1.2154,1.225,1.2357,1.2408,1.2405,1.2555,1.2521,1.2522,1.253,1.259,1.2599,1.2607,1.2504,1.2503,1.2503,0,0,1.1437,1.1505,1.1584,1.1651,1.1752,1.1807,1.1825,1.1934,1.1974,1.208,1.2118,1.2192,1.2338,1.2405,1.2459,1.254,1.2565,1.2566,1.2585,1.2643,1.265,1.2657,1.2687,1.2697,1.2574,1.2574,1.2574,0,1.1434,1.1559,1.1621,1.1706,1.1763,1.1811,1.1892,1.1953,1.2076,1.2115,1.211,1.2295,1.2363,1.2487,1.2506,1.2548,1.2572,1.2554,1.2644,1.2652,1.2659,1.2688,1.2699,1.2573,1.2573,1.2573,1.2573,0,1.155,1.1636,1.1688,1.1806,1.1869,1.1951,1.2027,1.2083,1.2117,1.2172,1.228,1.2364,1.2466,1.2498,1.2532,1.2627,1.2622,1.263,1.2622,1.2666,1.2695,1.2707,1.2572,1.2572,1.2573,1.2573,0,0,1.1586,1.1738,1.1756,1.1811,1.1925,1.1993,1.2077,1.2177,1.2225,1.2308,1.238,1.2503,1.2511,1.2571,1.2613,1.2664,1.2725,1.2666,1.267,1.2675,1.2835,1.2829,1.2841,1.2741,1.2744,1.2746,1.2827,0,1.1658,1.181,1.1869,1.1994,1.2074,1.212,1.2194,1.2272,1.2326,1.2402,1.2461,1.2548,1.2551,1.2588,1.2641,1.2706,1.2758,1.2701,1.281,1.2814,1.2786,1.2856,1.2851,1.2923,1.2839,1.2841,1.2842,0,1.1762,1.1846,1.1979,1.2084,1.212,1.2185,1.2282,1.2354,1.2443,1.2479,1.2547,1.2585,1.2675,1.266,1.2785,1.2745,1.2793,1.2832,1.2836,1.285,1.2831,1.2872,1.2948,1.2959,1.286,1.2859,1.2857,0,1.1776,1.1923,1.2021,1.2066,1.2191,1.2236,1.229,1.2378,1.2435,1.2519,1.2557,1.265,1.2702,1.2774,1.2837,1.282,1.2956,1.2946,1.2989,1.2988,1.3017,1.3015,1.3102,1.3046,1.3046,1.3045,1.3045,0,1.185,1.193,1.203,1.209,1.2181,1.2248,1.2335,1.2392,1.247,1.2543,1.2587,1.2654,1.2733,1.281,1.286,1.2957,1.2979,1.3011,1.3024,1.3008,1.3004,1.3041,1.3038,1.3048,1.3048,1.3047,1.3047,0,1.1882,1.1952,1.2063,1.2172,1.2201,1.2263,1.2356,1.2417,1.2473,1.2564,1.2589,1.2677,1.277,1.284,1.2961,1.2994,1.3097,1.311,1.3067,1.3074,1.3113,1.3109,1.3229,1.3249,1.3177,1.3178,1.3178,0,1.1925,1.1988,1.2104,1.2156,1.221,1.2293,1.2351,1.2419,1.2478,1.2584,1.2632,1.2729,1.2809,1.2956,1.3031,1.3123,1.3139,1.3175,1.3153,1.3136,1.3141,1.3137,1.3144,1.3178,1.3178,1.3179,1.3179,0,1.1995,1.2027,1.2109,1.2204,1.2273,1.235,1.2429,1.2469,1.2551,1.2614,1.2711,1.2773,1.2897,1.2992,1.3092,1.3148,1.3177,1.3185,1.32,1.3185,1.3159,1.3175,1.3077,1.3182,1.3182,1.3182,1.3181,1.3181,1.2035,1.2093,1.2184,1.2275,1.2341,1.2413,1.2476,1.254,1.2621,1.2727,1.2762,1.2861,1.2949,1.3087,1.3143,1.3222,1.3222,1.3243,1.3249,1.3254,1.3253,1.3145,1.324,1.324,1.324,1.324,1.324,0,1.2108,1.2169,1.2252,1.2361,1.2432,1.2453,1.2541,1.2599,1.2686,1.2766,1.2845,1.2955,1.3048,1.3129,1.3226,1.3273,1.3289,1.3296,1.3294,1.3307,1.3247,1.3225,1.3282,1.3282,1.3282,1.3282,1.3282,1.3281,1.2155,1.2255,1.2297,1.243,1.249,1.2588,1.2637,1.2704,1.2768,1.2889,1.2966,1.3019,1.31,1.3202,1.3288,1.331,1.3343,1.3347,1.3372,1.3316,1.3311,1.3306,1.3285,1.3354,1.3354,1.3426,1.3426,1.3427]},{"header":{"parameterUnit":"m.s-1","parameterCategory":1,"la1":30.2991,"la2":30.254,"lo1":-89.0895,"lo2":-89.0444,"dy":0.0017,"dx":0.0017,"nx":28,"ny":28,"refTime":"2023-08-06T03:00:00:Z","depth":0,"parameterNumber":3,"parameterNumberName":"V-component_of_WINDS"},"data":[0,0,0,0,0,0,0,0,0,0,0,0,0,0,0,0,0,0,0,0,0,0,0,0,0,0,0,0,0,0,0,0,0,0,0,0,0,0,0,0,0,0,0,0,0,0,0,0,0,0,0,0,0,0,0,0,0,0,6.6011,6.6012,0,6.6106,6.6108,6.6109,6.6064,6.6061,6.6059,6.6057,6.6143,6.6147,6.6152,0,0,0,0,0,0,0,0,0,0,0,0,0,6.5779,6.5784,6.6011,6.6013,6.6014,6.6106,6.6108,6.6109,6.6064,6.6061,6.6058,6.6056,6.6142,6.6147,6.6152,0,0,0,0,0,0,0,0,0,0,0,0,0,6.5878,6.5785,6.6011,6.6003,6.6003,6.6106,6.6108,6.6109,6.6065,6.6061,6.6058,6.6054,6.614,6.6146,6.6153,6.6266,0,0,6.6174,6.6177,0,0,0,0,0,0,0,0,6.5872,6.5886,6.6003,6.6004,6.6004,6.607,6.6057,6.6161,6.6066,6.6041,6.6057,6.6053,6.6121,6.6129,6.6154,6.627,6.6274,6.6174,6.6178,6.6181,6.6183,0,0,0,0,0,0,0,6.5865,6.5882,6.6048,6.6005,6.6005,6.5991,6.6001,6.6077,6.6099,6.6043,6.604,6.6052,6.612,6.6148,6.6156,6.6275,6.6174,6.618,6.6184,6.6187,6.6488,6.6491,0,0,0,0,0,0,6.586,6.5876,6.6045,6.6051,6.5928,6.5998,6.6009,6.6052,6.6099,6.6102,6.6055,6.605,6.6138,6.6148,6.6159,6.6294,6.6181,6.6188,6.6191,6.6484,6.6488,6.6493,0,0,0,0,0,0,6.5856,6.5876,6.6042,6.5963,6.5983,6.6006,6.6054,6.6056,6.6083,6.6108,6.6111,6.608,6.6136,6.6149,6.624,6.6297,6.6191,6.6197,6.6479,6.6485,6.6491,6.6566,0,0,0,0,0,0,6.5849,6.5875,6.592,6.5965,6.5988,6.6125,6.6058,6.606,6.6097,6.609,6.6132,6.6135,6.6134,6.6231,6.6247,6.6304,6.6202,6.6474,6.6482,6.6489,6.6559,6.6574,6.6587,0,0,0,0,0,6.5841,6.5935,6.5923,6.5944,6.6046,6.6129,6.6141,6.6141,6.6101,6.6146,6.6162,6.6134,6.6288,6.624,6.6259,6.6318,6.6471,6.648,6.6488,6.6553,6.6571,6.6587,0,0,0,0,0,0,6.5893,6.5941,6.5928,6.604,6.6082,6.6121,6.6177,6.6161,6.6211,6.6203,6.6196,6.6206,6.6301,6.6318,6.6264,6.643,6.6373,6.6385,6.6415,6.6433,6.6447,6.644,6.6208,0,0,0,0,0,6.5918,6.5985,6.6022,6.6117,6.6139,6.6155,6.6191,6.6187,6.6228,6.6244,6.6266,6.6303,6.636,6.6397,6.6451,6.6561,6.6568,6.6611,6.6625,6.6636,6.6647,6.6706,6.6725,6.6522,6.6522,6.6522,0,0,6.5969,6.6004,6.6046,6.6129,6.616,6.6226,6.617,6.6242,6.629,6.6253,6.6342,6.636,6.6401,6.6502,6.6548,6.652,6.6706,6.6648,6.6657,6.6662,6.6717,6.6737,6.6754,6.6528,6.6527,6.6526,0,0,6.6097,6.6131,6.6215,6.6248,6.6298,6.6308,6.6328,6.6371,6.6382,6.6472,6.6447,6.6501,6.6599,6.663,6.6658,6.6798,6.6774,6.6815,6.6888,6.6946,6.6962,6.6976,6.7025,6.7043,6.6826,6.6826,6.6826,0,6.6153,6.6256,6.6258,6.6334,6.637,6.6344,6.6427,6.6457,6.652,6.6544,6.6513,6.6636,6.6661,6.677,6.6804,6.6828,6.6848,6.681,6.696,6.6974,6.6987,6.7034,6.7053,6.6831,6.683,6.683,6.6829,0,6.6323,6.6394,6.6455,6.6522,6.6564,6.6642,6.6653,6.6695,6.6688,6.67,6.6791,6.6821,6.688,6.6905,6.6897,6.7012,6.6993,6.6961,6.6903,6.7012,6.7056,6.7074,6.6837,6.6836,6.6834,6.6833,0,0,6.6486,6.6554,6.6576,6.6606,6.6659,6.6712,6.6788,6.685,6.6886,6.6929,6.6991,6.7075,6.7047,6.7079,6.7073,6.7124,6.7232,6.7085,6.7086,6.7112,6.736,6.7384,6.7405,6.7217,6.722,6.7223,6.7356,0,6.6617,6.6756,6.676,6.6884,6.6949,6.6926,6.6991,6.7029,6.7042,6.7096,6.7108,6.7169,6.7126,6.7145,6.7195,6.7209,6.7282,6.7199,6.7272,6.7275,6.7263,6.7428,6.7454,6.7578,6.7374,6.7377,6.7379,0,6.679,6.6844,6.6977,6.7021,6.7048,6.7108,6.7165,6.7218,6.7259,6.7265,6.7302,6.7289,6.7363,6.7303,6.7404,6.7348,6.7377,6.7388,6.7393,6.74,6.7333,6.7439,6.7618,6.7637,6.7406,6.7404,6.7402,0,6.6895,6.7001,6.7094,6.712,6.7174,6.7217,6.724,6.7278,6.7315,6.7363,6.7387,6.7442,6.7471,6.7512,6.7514,6.747,6.7615,6.7555,6.762,6.762,6.7651,6.7649,6.7837,6.767,6.767,6.767,6.7669,0,6.7042,6.7124,6.7143,6.72,6.729,6.7292,6.738,6.7399,6.7433,6.7491,6.7472,6.7526,6.7524,6.7578,6.7579,6.7662,6.7675,6.768,6.7679,6.7682,6.7681,6.7701,6.7692,6.7675,6.7674,6.7673,6.7672,0,6.7176,6.7192,6.7292,6.7336,6.7349,6.7413,6.7449,6.7501,6.7513,6.7587,6.7604,6.7621,6.7684,6.7689,6.776,6.7761,6.7861,6.785,6.7849,6.7847,6.7911,6.7905,6.8118,6.8146,6.7961,6.7963,6.7964,0,6.7269,6.7332,6.7384,6.7424,6.7451,6.7514,6.7553,6.7556,6.7596,6.7649,6.7694,6.7756,6.7805,6.7905,6.7922,6.7976,6.7966,6.8037,6.7974,6.7975,6.7967,6.7964,6.7969,6.805,6.8052,6.8053,6.8055,0,6.7432,6.7437,6.7496,6.7558,6.7606,6.7654,6.7698,6.773,6.7738,6.7784,6.785,6.7889,6.7963,6.8023,6.8076,6.8096,6.8076,6.8075,6.8092,6.8096,6.8092,6.8095,6.7882,6.807,6.8068,6.8067,6.8066,6.8066,6.7548,6.7603,6.7649,6.7715,6.775,6.7792,6.7844,6.7864,6.7921,6.7984,6.7981,6.8054,6.8091,6.8161,6.8185,6.8239,6.8215,6.8241,6.8247,6.8253,6.826,6.8084,6.8249,6.8248,6.8248,6.8248,6.8247,0,6.771,6.7739,6.78,6.7865,6.7916,6.7897,6.7945,6.7988,6.8054,6.8092,6.8143,6.8217,6.8276,6.8298,6.8354,6.8393,6.8385,6.8407,6.8404,6.8409,6.8279,6.8258,6.8413,6.8413,6.8413,6.8413,6.8413,6.8413,6.78,6.7893,6.7904,6.8012,6.8039,6.8114,6.8143,6.818,6.8212,6.8298,6.8348,6.8363,6.8394,6.8453,6.8505,6.8509,6.853,6.8557,6.8557,6.8435,6.8418,6.8402,6.8383,6.8561,6.8562,6.8683,6.8684,6.8685]}]]